202  
ASUS44 KEWX 282210  
RWRTX  
SOUTH TEXAS REGIONAL WEATHER ROUNDUP  
NATIONAL WEATHER SERVICE AUSTIN/SAN ANTONIO TX  
400 PM CST SAT FEB 28 2015  
 
NOTE: "FAIR" INDICATED FEW OR NO CLOUDS BELOW 12,000 FEET WITH NO  
SIGNIFICANT WEATHER AND/OR S TO VISIBILITY
.  
 
* - THESE STATIONS ARE NOT NWS OR FAA STATIONS...AND ARE NOT SUBJECT  
TO NWS AND FAA QUALITY CONTROL.
 
 
TXZ171-172-183>190-282300-  
TEXAS HILL COUNTRY AND EDWARDS PLATEAU  
 
CITY SKY/WX TMP DP RH WIND PRES REMARKS
 
JUNCTION CLOUDY 32 31 96 NE7 30.19S FOG WCI 26  
*LLANO CLOUDY 34 32 93 CALM 30.29S FOG  
BURNET CLOUDY 32 30 92 NE7 30.26S FOG WCI 26  
*HORSESHOE BAY MIX PCPN 33 33 100 NW5 30.25S WCI 28  
*KERRVILLE MIX PCPN 33 32 95 N5 30.20S WCI 29  
*FREDERICKSBRG DRIZZLE 32 31 97 NE5 30.20S WCI 27  
*ROCKSPRINGS FOG 36 36 100 NE5 30.16F VSB 3/4 WCI 32  
*BOERNE STAGE CLOUDY 34 32 93 N6 30.20S WCI 29  
*CASTROVILLE CLOUDY 39 39 97 NE5 30.21S FOG WCI 36  
HONDO CLOUDY 41 32 70 NE8 30.21R FOG WCI 36  
*UVALDE CLOUDY 41 40 95 NE6 30.20S FOG WCI 37  
DEL RIO CLOUDY 44 39 82 E6 30.17F WCI 41  
LAUGHLIN AFB CLOUDY 44 39 85 SE7 30.16F WCI 40  
CARRIZO SPRGS CLOUDY 41 39 93 N6 30.18F FOG WCI 37  

 
 
TXZ173-191>194-202-209-217>225-228-282300-  
CENTRAL AND SOUTH CENTRAL TEXAS  
 
CITY SKY/WX TMP DP RH WIND PRES REMARKS
 
GEORGETOWN CLOUDY 34 32 93 N10 30.26S FOG WCI 26  
AUSTIN/BERGSTM DRZL/FOG 36 35 96 N10 30.25S VSB 1 WCI 28  
AUSTIN/MABRY CLOUDY 35 34 96 N5 30.26S FOG WCI 31  
*AUSTIN/EXEC LGT RAIN 36 34 93 N12 30.26R VSB 1 WCI 27  
*LAGO VISTA MIX PCPN 33 32 96 N3 30.23S  
SAN MARCOS FOG 36 34 93 N14 30.23F VSB 1 WCI 27  
NEW BRAUNFELS LGT RAIN 37 36 96 N13 30.21S FOG WCI 29  
RANDOLPH AFB LGT RAIN 37 35 94 N10 30.20F FOG WCI 30  
PT SAN ANTONIO CLOUDY 37 37 100 N10 30.17F FOG WCI 30  
SAN ANTONIO LGT RAIN 38 36 92 N8 30.20F VSB 1 WCI 32  
STINSON FIELD LGT RAIN 39 37 92 N8 30.19S FOG WCI 33  
*PLEASANTON CLOUDY 39 38 96 N7 30.20S FOG WCI 34  
*LA GRANGE PTSUNNY 48 41 76 N5 30.20F WCI 46  
*GIDDINGS CLOUDY 44 35 69 N6 30.26S WCI 41  
*GONZALES LGT RAIN 42 40 94 N9 30.21R WCI 37  

 
 
TXZ163>164-176>182-195>201-210>213-226-227-235-282300-  
SOUTHEAST TEXAS  
 
CITY SKY/WX TMP DP RH WIND PRES REMARKS
 
COLLEGE STN CLOUDY 49 37 63 NE6 30.24S WCI 46  
*BRYAN CLOUDY 47 36 63 N5 30.25F WCI 45  
*CALDWELL CLOUDY 45 36 70 N6 30.27S WCI 41  
*CROCKETT CLOUDY 52 39 62 NE6 30.28R  
*BRENHAM PTSUNNY 52 40 65 CALM 30.23S  
HUNTSVILLE CLOUDY 52 38 58 E5 30.23F  
CONROE CLOUDY 54 39 57 E7 30.23F  
HOUSTON BUSH CLOUDY 57 44 62 E10 30.22F  
HOUSTON HOBBY CLOUDY 56 48 74 E13 30.21S  
*HOUSTON SW AP N/A 61 56 85 E10G16 30.21S  
PEARLAND CLOUDY 56 48 74 E12G24 30.22F  
HOUSTON HOOKS CLOUDY 55 40 56 E6 30.22R  
ELLINGTON FLD CLOUDY 63 46 55 E10 30.21F  
SUGAR LAND CLOUDY 55 47 74 E7 30.20S  
*HOUSTON EXEC PTSUNNY 54 46 76 E10 30.22S HAZE  
*CLEVELAND MUN CLOUDY 57 45 62 E3 30.24F  
*WHARTON CLOUDY 54 51 90 E13 30.18F FOG  
*COLUMBUS LGT RAIN 51 47 84 NE8 30.19F  

 
 
TXZ214>216-236>238-282300-  
THE UPPER TEXAS COAST  
 
CITY SKY/WX TMP DP RH WIND PRES REMARKS
 
*ORANGE CLOUDY 57 45 63 E8 30.26F  
PORT ARTHUR CLOUDY 57 43 59 NE12 30.24F  
GALVESTON CLOUDY 55 50 83 E20G25 30.21S  
ANGLETON CLOUDY 55 51 86 E12 30.19S  
*BAY CITY CLOUDY 58 55 91 E13 30.17S FOG  
PALACIOS LGT RAIN 57 56 96 NE14 30.15S FOG  

 
 
TXZ229>234-239>247-282300-  
TEXAS COASTAL BEND AND RIO GRANDE PLAINS  
 
CITY SKY/WX TMP DP RH WIND PRES REMARKS
 
VICTORIA LGT RAIN 54 53 97 NE8 30.16F FOG  
*BEEVILLE LGT RAIN 49 49 100 N9 30.15F WCI 46  
ROCKPORT LGT RAIN 58 56 93 NE9 30.12S FOG  
*PORT ARANSAS LGT RAIN 60 60 99 NW8 30.11S  
*PORT LAVACA DRIZZLE 55 55 99 NE10 30.15S  
*INGLESIDE DRIZZLE 53 52 97 N8 30.12S  
CORPUS CHRISTI LGT RAIN 55 53 93 N14 30.12F FOG  
CORPUS NAS CLOUDY 56 32 40 NW13 30.12S FOG  
*ROBSTOWN DRIZZLE 52 51 99 N14 30.14S  
ALICE CLOUDY 49 46 90 NW8 30.14F FOG WCI 45  
KINGSVILLE NAS LGT RAIN 50 49 96 NW15 30.14S FOG WCI 45  
COTULLA CLOUDY 43 40 89 N7 30.19S FOG WCI 39  
*FAITH RANCH CLOUDY 43 39 87 NE5 30.18S WCI 40  
LAREDO CLOUDY 43 40 89 N8 30.19F WCI 38  

 
 
TXZ248>255-282300-  
DEEP SOUTH TEXAS  
 
CITY SKY/WX TMP DP RH WIND PRES REMARKS
 
BROWNSVILLE LGT RAIN 50 48 93 NW10 30.12S FOG WCI 46  
PORT ISABEL LGT RAIN 50 49 96 NW12 30.11F FOG WCI 46  
*SOUTH PADRE MOSUNNY 50 50 100 NW9 30.11S WCI 46  
HARLINGEN LGT RAIN 50 48 93 NW13 30.11F FOG WCI 45  
*HEBBRONVILLE RAIN N/A N/A N/A NW10 30.15F  
MCALLEN CLOUDY 49 46 90 NW13 30.14F WCI 44  
*WESLACO LGT RAIN 48 46 92 NW8 30.13S WCI 44  
FALFURRIAS CLOUDY 48 46 92 NW8 30.14S WCI 44  
EDINBURG CLOUDY 50 47 90 NW10 30.14F FOG WCI 46  
*ZAPATA CLOUDY 46 40 79 N8 30.15F WCI 42  

 
 
TXZ213>215-236>238-242>244-246-247-251-254-255-282300-  
CMAN STATIONS  
 
STATION/POSITION TIME TEMP WIND PRES WAVE
 
AIR SEA DIR/SP/G HT/PER  
(UTC) (F) (DEG/KT/KT) (MB) (FT/S)  
SABINE PASS 2200 55 51 100/ 12/ 15 1024.0  
SEA RIM ST PARK 2200 55 80/ 16/ 19 1024.1  
NORTH JETTY/GLS 2200 53 51 100/ 23/ 25 N/A  
EAGLE POINT 2200 52 46 100/ 13/ 15 1023.2  
MORGANS POINT 2200 55 53 90/ 7/ 11 1023.0  
MISSION/ARANSAS 2100 56 VRB 9 1021.0  
PORT O'CONNOR 2200 50/ 15/ 18 N/A  
PORT ARANSAS 2200 61 55 340/ 4/ 5 1019.9  
MALAQUITE BEACH 2200 56 56 320/ 11/ 12 1019.1  
BAFFIN BAY 2200 53 320/ 11/ 14 1019.7  
PORT ISABEL 2200 50 58 310/ 9/ 11 1019.4  

 
 
GMZ080-GMZ150>470-282300-  
OFFSHORE BUOY REPORTS  
 
STATION/POSITION TIME TEMP WIND PRES WAVE
 
AIR SEA DIR/SP/G HT/PER  
(UTC) (F) (DEG/KT/KT) (MB) (FT/S)  
20 E GALVESTON 2200 55 56 70/ 17/ 21 1022.0 6/ 7  
90 E PT ARANSAS 2200 67 67 80/ 19/ 23 1019.8 9/ 9  
35 NE PT MANSFLD 2200 60 69 300/ 8/ 12 1018.8 9/ 9  
200 E PT ISABEL 2200 71 70 100/ 16/ 21 1018.8 9/10  

 
 
CLICK HERE TO GO TO PREVIOUS BULLETINS.

The Nexlab TX Page Main Text Page